Weather History for KSLC - February, 2013

Change the Weather History Date:

Wednesday, February 20, 2013

  Actual Average Record
Temperature  
Mean Temperature 35 °F 36 °F  
Max Temperature 40 °F 45 °F 66 °F (1879)
Min Temperature 30 °F 27 °F 0 °F (1955)
Degree Days  
Heating Degree Days 30 29  
Month to date heating degree days 720 642  
Since 1 July heating degree days 3940 4036  
Cooling Degree Days 0 0  
Month to date cooling degree days 0 0  
Year to date cooling degree days 0 0  
Moisture  
Dew Point 28 °F    
Average Humidity 76    
Maximum Humidity 92    
Minimum Humidity 59    
Precipitation  
Precipitation 0.05 in 0.05 in 0.90 in (1934)
Month to date precipitation 0.27 0.86  
Year to date precipitation 1.79 2.11  
Snow  
Snow 0.60 in 0.40 in 3.90 in (1985)
Month to date snowfall 4.9 7.9  
Since 1 July snowfall 57.3 42.6  
Snow Depth 1.00 in    
Sea Level Pressure  
Sea Level Pressure 29.65 in    
Wind  
Wind Speed 8 mph (NW)    
Max Wind Speed 16 mph    
Max Gust Speed 18 mph    
Visibility 8 miles    
Events Snow    
T = Trace of Precipitation, MM = Missing Value Source: NWS Daily Summary

Daily Weather History Graph

Daily Weather History Graph

Search for Another Location

Airport or City:

Trip Planner

Search our weather history database for the weather conditions in past years. The results will help you decide how hot, cold, wet, or windy it might be!

Date:

Astronomy

Feb. 20, 2013 Rise Set
Actual Time 7:14 AM MST 6:09 PM MST
Civil Twilight 6:46 AM MST 6:36 PM MST
Nautical Twilight 6:14 AM MST 7:08 PM MST
Astronomical Twilight 5:43 AM MST 7:40 PM MST
Moon 1:32 PM MST (2/20) 3:38 AM MST (2/20)
Length of Visible Light 11h 50m
Length of Day
10h 54m
Waxing Gibbous, 76% of the Moon is Illuminated
Feb 20
Waxing Gibbous
Feb 25
Full
Mar 4
Last Quarter
Mar 11
New
Mar 19
First Quarter

Hourly Weather History & Observations

Time (MST) Temp. Windchill Dew Point Humidity Pressure Visibility Wind Dir Wind Speed Gust Speed Precip Events Conditions
12:53 AM 36.0 °F 31.1 °F 23.0 °F 59% 29.55 in 10.0 mi SSE 5.8 mph - N/A   Overcast
1:53 AM 34.0 °F 31.0 °F 25.0 °F 70% 29.55 in 10.0 mi NNE 3.5 mph - N/A   Overcast
2:53 AM 35.1 °F 32.2 °F 25.0 °F 67% 29.56 in 10.0 mi NNE 3.5 mph - N/A   Overcast
3:53 AM 33.1 °F 27.7 °F 25.0 °F 72% 29.54 in 10.0 mi NW 5.8 mph - N/A   Mostly Cloudy
4:53 AM 33.1 °F - 25.0 °F 72% 29.57 in 10.0 mi Calm Calm - N/A   Overcast
5:53 AM 32.0 °F 23.6 °F 24.1 °F 73% 29.58 in 10.0 mi North 10.4 mph - N/A   Mostly Cloudy
6:53 AM 35.1 °F 28.6 °F 24.1 °F 64% 29.57 in 10.0 mi NNW 8.1 mph - N/A   Mostly Cloudy
7:53 AM 33.1 °F 30.0 °F 25.0 °F 72% 29.60 in 10.0 mi SSW 3.5 mph - N/A   Overcast
8:53 AM 35.1 °F - 26.1 °F 70% 29.61 in 10.0 mi Calm Calm - N/A   Overcast
9:53 AM 37.9 °F 30.5 °F 30.0 °F 73% 29.60 in 10.0 mi West 11.5 mph - N/A   Mostly Cloudy
10:53 AM 37.0 °F 33.3 °F 28.0 °F 70% 29.62 in 10.0 mi North 4.6 mph - N/A   Mostly Cloudy
11:53 AM 37.9 °F 30.9 °F 27.0 °F 65% 29.61 in 10.0 mi NW 10.4 mph - N/A   Mostly Cloudy
12:53 PM 37.0 °F 27.7 °F 30.0 °F 76% 29.63 in 10.0 mi WNW 16.1 mph - N/A   Mostly Cloudy
1:53 PM 37.0 °F 28.5 °F 30.0 °F 76% 29.61 in 10.0 mi WNW 13.8 mph - N/A   Mostly Cloudy
2:53 PM 37.9 °F 30.5 °F 28.0 °F 68% 29.64 in 10.0 mi WNW 11.5 mph - N/A   Mostly Cloudy
3:53 PM 37.9 °F 31.5 °F 30.0 °F 73% 29.63 in 10.0 mi WNW 9.2 mph - N/A   Mostly Cloudy
4:53 PM 37.0 °F 29.8 °F 30.0 °F 76% 29.68 in 10.0 mi WNW 10.4 mph - N/A   Overcast
5:53 PM 35.1 °F 27.4 °F 30.0 °F 82% 29.70 in 9.0 mi West 10.4 mph - N/A   Overcast
6:15 PM 35.6 °F 27.5 °F 30.2 °F 81% 29.69 in 8.0 mi WNW 11.5 mph - 0.00 in Snow Light Snow
6:53 PM 34.0 °F 26.0 °F 30.0 °F 85% 29.72 in 8.0 mi WNW 10.4 mph - 0.00 in Snow Light Snow
7:53 PM 32.0 °F 23.0 °F 28.9 °F 88% 29.76 in 3.0 mi NNW 11.5 mph - 0.00 in Snow Light Snow
8:53 PM 30.9 °F 21.7 °F 28.9 °F 92% 29.77 in 3.0 mi NW 11.5 mph - 0.02 in Snow Light Snow
9:53 PM 30.9 °F 22.8 °F 28.0 °F 89% 29.78 in 5.0 mi NW 9.2 mph - 0.01 in Snow Light Snow
10:53 PM 30.0 °F 23.2 °F 28.9 °F 96% 29.81 in 3.0 mi NNW 6.9 mph - 0.02 in Snow Light Snow
11:53 PM 30.0 °F 21.1 °F 28.0 °F 92% 29.82 in 3.0 mi NNW 10.4 mph - 0.01 in Snow Light Snow